Location: Launois
(49.6535°N, 4.5395°E)
Time: 14:42:27
(UTC+00:00)

ADEOS II - Pass Details

Date: 23 May 2024
Orbit: 796 x 798 km, 98.7° (Epoch: 19 June)

Event Time Altitude Azimuth Distance (km) Brightness Sun altitude
Rises 02:52:10 0° 10° (N) 3,314 6.3 -7.7°
Reaches altitude 10° 02:54:34 10° 5° (N) 2,379 5.4 -7.4°
Maximum altitude 02:59:34 46° 293° (WNW) 1,059 2.6 -6.8°
Drops below altitude 10° 03:04:32 10° 221° (SW) 2,363 3.9 -6.2°
Enters shadow 03:05:11 - 219° (SW) 2,610 4.1 -6.1°
